Weather History for KAXX - December, 2012

Change the Weather History Date:

Tuesday, December 18, 2012

  Actual Average (KSKX) Record (KSKX)
Temperature  
Mean Temperature 28 °F -  
Max Temperature 35 °F 38 °F 51 °F (1998)
Min Temperature 22 °F 8 °F 3 °F (2000)
Degree Days  
Heating Degree Days 36    
Moisture  
Dew Point 21 °F    
Average Humidity 71    
Maximum Humidity 89    
Minimum Humidity 54    
Precipitation  
Precipitation 0.00 in - - ()
Sea Level Pressure  
Sea Level Pressure 29.84 in    
Wind  
Wind Speed 15 mph (WSW)    
Max Wind Speed 24 mph    
Max Gust Speed 33 mph    
Visibility 10 miles    
Events Snow    
Averages and records for this station are not official NWS values.
T = Trace of Precipitation, MM = Missing Value Source: NWS Daily Summary

Daily Weather History Graph

Daily Weather History Graph

Search for Another Location

Airport or City:

Trip Planner

Search our weather history database for the weather conditions in past years. The results will help you decide how hot, cold, wet, or windy it might be!

Date:

Astronomy

Dec. 18, 2012 Rise Set
Actual Time 7:07 AM MST 4:48 PM MST
Civil Twilight 6:38 AM MST 5:17 PM MST
Nautical Twilight 6:06 AM MST 5:49 PM MST
Astronomical Twilight 5:35 AM MST 6:20 PM MST
Moon 10:58 AM MST (12/18) 11:07 PM MST (12/18)
Length of Visible Light 10h 38m
Length of Day
9h 40m
Waxing Crescent, 35% of the Moon is Illuminated
Dec 18
Waxing Crescent
Dec 19
First Quarter
Dec 28
Full
Jan 4
Last Quarter
Jan 11
New

Hourly Weather History & Observations

Time (MST) Temp. Windchill Dew Point Humidity Pressure Visibility Wind Dir Wind Speed Gust Speed Precip Events Conditions
12:15 AM 23.7 °F 11.5 °F 21.0 °F 89% 29.96 in 10.0 mi West 13.8 mph 20.7 mph N/A   Overcast
12:55 AM 23.5 °F 11.8 °F 20.3 °F 87% 29.94 in 10.0 mi WSW 12.7 mph - N/A   Overcast
1:15 AM 23.5 °F 11.3 °F 20.3 °F 87% 29.93 in 10.0 mi WSW 13.8 mph - N/A   Overcast
1:35 AM 23.0 °F 11.1 °F 19.8 °F 87% 29.92 in 10.0 mi WSW 12.7 mph - N/A   Mostly Cloudy
1:55 AM 23.5 °F 12.4 °F 20.1 °F 87% 29.93 in 10.0 mi WSW 11.5 mph - N/A   Mostly Cloudy
2:15 AM 23.9 °F 12.9 °F 19.9 °F 85% 29.93 in 10.0 mi WSW 11.5 mph 19.6 mph N/A   Overcast
2:35 AM 23.9 °F 15.0 °F 19.8 °F 84% 29.92 in 10.0 mi SW 8.1 mph - N/A   Overcast
2:55 AM 23.9 °F 12.3 °F 19.4 °F 83% 29.91 in 10.0 mi WSW 12.7 mph - N/A   Overcast
3:15 AM 23.9 °F 11.7 °F 19.0 °F 82% 29.91 in 10.0 mi SW 13.8 mph 19.6 mph N/A   Overcast
3:35 AM 23.9 °F 9.9 °F 18.9 °F 81% 29.91 in 10.0 mi SW 18.4 mph 27.6 mph N/A   Overcast
3:55 AM 23.7 °F 9.7 °F 18.5 °F 80% 29.90 in 10.0 mi SW 18.4 mph 25.3 mph N/A   Overcast
4:15 AM 23.7 °F 11.5 °F 18.5 °F 80% 29.90 in 10.0 mi SW 13.8 mph - N/A   Overcast
4:35 AM 23.5 °F 10.8 °F 18.7 °F 82% 29.90 in 10.0 mi SW 15.0 mph 18.4 mph N/A   Overcast
5:15 AM 22.8 °F 8.9 °F 18.5 °F 83% 29.91 in 10.0 mi SW 17.3 mph - N/A   Mostly Cloudy
5:35 AM 23.7 °F 11.5 °F 19.0 °F 82% 29.91 in 10.0 mi SW 13.8 mph - N/A   Overcast
7:55 AM 23.5 °F 10.8 °F 18.5 °F 81% 29.94 in 10.0 mi WSW 15.0 mph - N/A   Clear
8:15 AM 24.6 °F 11.3 °F 18.5 °F 78% 29.94 in 10.0 mi WSW 17.3 mph 21.9 mph N/A   Clear
8:35 AM 25.0 °F 13.6 °F 18.7 °F 77% 29.95 in 10.0 mi WSW 12.7 mph - N/A   Clear
8:55 AM 25.7 °F 12.7 °F 19.2 °F 76% 29.95 in 10.0 mi WSW 17.3 mph - N/A   Clear
9:35 AM 27.1 °F 16.4 °F 19.6 °F 73% 29.95 in 10.0 mi WSW 12.7 mph - N/A   Clear
9:55 AM 28.0 °F 17.0 °F 20.1 °F 72% 29.95 in 10.0 mi West 13.8 mph - N/A   Clear
10:35 AM 28.0 °F 16.1 °F 20.1 °F 72% 29.93 in 10.0 mi West 16.1 mph 25.3 mph N/A   Clear
11:15 AM 29.8 °F 17.3 °F 21.0 °F 70% 29.91 in 10.0 mi West 19.6 mph - N/A   Clear
11:35 AM 30.6 °F 17.6 °F 20.3 °F 66% 29.90 in 10.0 mi West 21.9 mph 28.8 mph N/A   Clear
11:55 AM 30.6 °F 17.3 °F 19.6 °F 64% 29.88 in 10.0 mi West 23.0 mph 27.6 mph N/A   Clear
12:15 PM 31.1 °F 18.3 °F 19.6 °F 62% 29.87 in 10.0 mi West 21.9 mph 31.1 mph N/A   Clear
12:35 PM 32.0 °F 20.5 °F 20.3 °F 62% 29.86 in 10.0 mi WSW 18.4 mph 26.5 mph N/A   Clear
1:15 PM 34.0 °F 22.1 °F 19.2 °F 55% 29.84 in 10.0 mi WSW 21.9 mph 28.8 mph N/A   Clear
1:35 PM 33.8 °F 21.9 °F 18.5 °F 54% 29.83 in 10.0 mi WSW 21.9 mph 27.6 mph N/A   Clear
1:55 PM 33.6 °F 21.1 °F 18.9 °F 55% 29.82 in 10.0 mi West 24.2 mph 29.9 mph N/A   Clear
2:15 PM 33.3 °F 22.1 °F 19.4 °F 57% 29.82 in 10.0 mi West 18.4 mph 26.5 mph N/A   Clear
2:55 PM 32.9 °F 23.7 °F 19.8 °F 59% 29.80 in 10.0 mi West 12.7 mph 23.0 mph N/A   Clear
3:15 PM 32.9 °F 22.4 °F 19.4 °F 58% 29.80 in 10.0 mi West 16.1 mph 24.2 mph N/A   Clear
3:35 PM 32.4 °F 22.1 °F 19.8 °F 60% 29.79 in 10.0 mi WSW 15.0 mph 19.6 mph N/A   Clear
4:15 PM 31.8 °F 22.3 °F 19.8 °F 61% 29.78 in 10.0 mi West 12.7 mph - N/A   Clear
5:35 PM 30.2 °F 20.2 °F 19.9 °F 66% 29.76 in 10.0 mi West 12.7 mph - N/A   Clear
5:55 PM 30.4 °F 25.6 °F 19.9 °F 65% 29.76 in 10.0 mi West 4.6 mph - N/A   Clear
6:55 PM 33.3 °F 22.5 °F 21.6 °F 62% 29.75 in 10.0 mi WSW 17.3 mph 31.1 mph N/A   Mostly Cloudy
7:15 PM 33.4 °F 22.3 °F 22.6 °F 65% 29.75 in 10.0 mi WSW 18.4 mph 33.4 mph N/A   Mostly Cloudy
7:35 PM 33.8 °F 23.2 °F 23.0 °F 65% 29.75 in 10.0 mi WSW 17.3 mph 27.6 mph N/A   Overcast
7:55 PM 33.8 °F 23.5 °F 23.0 °F 65% 29.74 in 10.0 mi SW 16.1 mph 24.2 mph N/A   Overcast
8:15 PM 34.2 °F 22.6 °F 23.9 °F 66% 29.73 in 10.0 mi WSW 20.7 mph 28.8 mph N/A   Overcast
8:35 PM 34.2 °F 24.4 °F 24.3 °F 67% 29.73 in 10.0 mi SW 15.0 mph 26.5 mph N/A Snow Light Snow
8:55 PM 33.8 °F 23.5 °F 25.0 °F 70% 29.73 in 10.0 mi WSW 16.1 mph 24.2 mph N/A   Overcast
9:15 PM 34.2 °F 25.7 °F 25.0 °F 69% 29.73 in 10.0 mi SW 11.5 mph 19.6 mph N/A   Overcast
9:35 PM 34.2 °F 24.4 °F 25.3 °F 70% 29.71 in 10.0 mi WSW 15.0 mph 24.2 mph N/A   Mostly Cloudy
9:55 PM 34.7 °F 26.9 °F 25.3 °F 69% 29.72 in 10.0 mi WSW 10.4 mph 24.2 mph N/A   Overcast
10:15 PM 34.3 °F 23.9 °F 25.3 °F 70% 29.71 in 10.0 mi SW 17.3 mph 27.6 mph N/A   Overcast
10:35 PM 34.3 °F 25.5 °F 25.7 °F 71% 29.70 in 10.0 mi SW 12.7 mph 27.6 mph N/A   Overcast
10:55 PM 34.7 °F 25.5 °F 25.7 °F 70% 29.70 in 10.0 mi WSW 13.8 mph 20.7 mph N/A   Overcast
11:15 PM 35.1 °F 25.2 °F 25.2 °F 67% 29.68 in 10.0 mi SSW 16.1 mph 25.3 mph N/A   Overcast
11:35 PM 35.1 °F 25.9 °F 24.8 °F 66% 29.67 in 10.0 mi SW 13.8 mph 26.5 mph N/A   Overcast
11:55 PM 35.2 °F 25.8 °F 24.8 °F 66% 29.67 in 10.0 mi SW 15.0 mph 23.0 mph N/A   Overcast